Погода в Цветково

Украина / Черкасская область     49°09′18″N   31°31′52″E
темп.,
°C
ветер,
м/с
пор.,
м/с
влажн.,
%
обл.,
%
осадки,
мм/ч
давл.,
гПа
погр.,
м
7 мая, пт
пт700:00+7сз227999 0.0 101420
03:00+6юз11735 0.0 101410
06:00+6ююз228096 0.0 101417
09:00+12ю3466100 0.0 1014351
12:00+16ю5749100 0.0 10131441
15:00+18ю81149100 0.0 10111955
18:00+15ю61169100 0.1 1009673
21:00+13ю71582100 1.4 1008693
8 мая, сб
сб800:00+12ююз71686100 0.9 1007547
03:00+12ююз61489100 1.4 1005616
06:00+11зсз61194100 1.3 1006634
09:00+11зсз81084100 1.6 1010927
12:00+12зсз81061100 0.0 10121607
15:00+13зсз91244100 0.1 10132671
18:00+9сз812655 0.0 10151489
21:00+5сз6118331 0.0 1018647
9 мая, вс
вс900:00+5зсз613825 0.0 1019467
03:00+4сз512875 0.0 1021349
06:00+2зсз410880 0.0 1023238
09:00+9сз57660 0.0 1025689
12:00+12сз67505 0.0 10251834
15:00+13сз6750100 0.0 10251735
18:00+13ссз3654100 0.0 10261700
21:00+8зсз11695 0.0 102710
10 мая, пн
пн1000:00+7зсз127010 0.0 102810
03:00+5ссв117740 0.0 102910
06:00+5в11780 0.0 103010
09:00+11всв23550 0.0 1030488
12:00+15ссв34410 0.0 10291557
15:00+16ссв34370 0.0 10281682
18:00+15ссв46500 0.0 10271468
21:00+9ссв33690 0.0 102841
11 мая, вт
вт1100:00+7ссв33780 0.0 102837
03:00+6ссв34850 0.0 102868
06:00+5ссв37860 0.0 1027127
09:00+12ссв57590 0.0 1026557
12:00+17св56470 0.0 1025978
15:00+19св45480 0.0 10231131
18:00+18св45580 0.0 10231257
21:00+12св34804 0.0 102365